JR0ZFO-13 Weather Reports


time (UTC)temp
F
wind
direction
speed
knots
gust
knots
rain 1hr
in
rain 24hr
in
rain mn
in
humidity
%
barometer
mb
20260508205831 50 338 0.9 1.7 0.00 0.79 0.00 76 1012.6
20260508205349 50 34 0.0 0.9 0.00 0.79 0.00 75 1012.5
20260508204828 49 34 0.0 1.7 0.00 0.79 0.00 78 1012.3
20260508204347 48 34 0.0 1.7 0.00 0.79 0.00 80 1012.2
20260508203824 47 93 0.0 2.6 0.00 0.79 0.00 84 1012.2
20260508203323 46 171 0.9 2.6 0.00 0.79 0.00 85 1012.2
20260508202825 46 208 0.0 0.9 0.00 0.79 0.00 85 1012.0
20260508202323 46 208 0.0 5.2 0.00 0.79 0.00 85 1012.0
20260508201821 45 42 0.9 7.0 0.00 0.79 0.00 85 1011.8
20260508201319 45 98 1.7 3.5 0.00 0.79 0.00 84 1011.8
20260508200839 45 31 0.0 2.6 0.00 0.79 0.00 82 1011.6
20260508200339 46 349 1.7 2.6 0.00 0.79 0.00 81 1011.5
20260508195816 45 248 0.0 0.0 0.00 0.79 0.00 81 1011.4
20260508195335 45 247 0.0 0.0 0.00 0.79 0.00 81 1011.3
20260508194833 45 243 0.0 2.6 0.00 0.79 0.00 81 1011.1
20260508194353 46 243 0.0 2.6 0.00 0.79 0.00 81 1011.2
20260508193831 46 54 0.0 0.9 0.00 0.79 0.00 81 1011.0
20260508193330 46 55 0.0 5.2 0.00 0.79 0.00 81 1011.1
20260508192829 46 54 1.7 5.2 0.00 0.79 0.00 80 1011.0
20260508192349 46 64 0.9 1.7 0.00 0.79 0.00 78 1011.0
20260508191827 46 213 0.0 0.0 0.00 0.79 0.00 77 1010.8
20260508191346 46 213 0.0 0.0 0.00 0.79 0.00 77 1010.9
20260508190823 47 212 0.0 2.6 0.00 0.79 0.00 76 1010.7
20260508190321 47 212 0.0 3.5 0.00 0.79 0.00 75 1010.5
20260508185818 47 228 0.9 4.3 0.00 0.79 0.00 75 1010.6
20260508185317 47 348 2.6 5.2 0.00 0.79 0.00 74 1010.4
20260508184835 47 75 2.6 5.2 0.00 0.79 0.00 74 1010.3
20260508184312 47 45 0.9 0.9 0.00 0.79 0.00 76 1010.1
20260508183854 47 16 0.0 0.9 0.00 0.79 0.00 75 1010.1
20260508183315 47 33 0.0 0.9 0.00 0.79 0.00 74 1010.0
20260508182814 47 52 0.0 1.7 0.00 0.79 0.00 74 1009.9
20260508182333 48 52 0.9 1.7 0.00 0.79 0.00 75 1010.0
20260508181833 48 52 0.9 1.7 0.00 0.79 0.00 75 1010.1
20260508181331 48 32 0.0 0.0 0.00 0.79 0.00 73 1010.1
20260508180828 48 32 0.0 0.9 0.00 0.79 0.00 72 1010.1
20260508180326 49 32 0.0 1.7 0.00 0.79 0.00 72 1010.1
20260508175824 49 38 0.0 3.5 0.00 0.79 0.00 70 1010.1
20260508175323 49 61 0.9 3.5 0.00 0.79 0.00 71 1009.9
20260508174822 49 71 0.0 2.6 0.00 0.79 0.00 70 1010.0
20260508174342 50 319 0.9 2.6 0.00 0.79 0.00 68 1010.0
20260508173821 50 217 0.0 1.7 0.00 0.79 0.00 66 1010.0
20260508173319 49 12 0.0 0.9 0.00 0.79 0.00 67 1009.9
20260508172817 49 18 0.0 0.9 0.00 0.79 0.00 68 1009.8
20260508172315 49 36 0.0 1.7 0.00 0.79 0.00 69 1009.9
20260508171814 49 210 0.0 1.7 0.00 0.79 0.00 69 1010.0
20260508171313 49 56 0.0 1.7 0.00 0.79 0.00 70 1010.0
20260508170832 49 35 0.0 1.7 0.00 0.79 0.00 71 1010.1
20260508170351 49 290 0.0 3.5 0.00 0.79 0.00 71 1010.2
20260508165828 49 30 0.9 3.5 0.00 0.79 0.00 72 1010.2
20260508165327 49 338 0.9 3.5 0.00 0.79 0.00 74 1010.2
20260508164829 49 42 0.9 3.5 0.00 0.79 0.00 74 1010.2
20260508164326 49 24 0.9 3.5 0.00 0.79 0.00 75 1010.2
20260508163824 50 290 0.9 3.5 0.00 0.79 0.00 76 1010.2
20260508163323 49 69 0.0 1.7 0.00 0.79 0.00 76 1010.4
20260508162822 49 358 0.0 0.9 0.00 0.79 0.00 76 1010.4
20260508162321 49 20 0.0 0.9 0.00 0.79 0.00 79 1010.5
20260508161820 49 20 0.0 0.9 0.00 0.79 0.00 80 1010.6
20260508161319 49 20 0.0 0.9 0.00 0.79 0.00 82 1010.5
20260508160818 49 230 0.0 1.7 0.00 0.79 0.00 84 1010.5
20260508160317 49 207 0.0 1.7 0.00 0.79 0.00 87 1010.6
20260508155814 50 75 0.0 0.9 0.00 0.79 0.00 87 1010.6
20260508155312 50 75 0.0 0.9 0.00 0.79 0.00 88 1010.8
20260508154832 51 75 0.0 0.9 0.00 0.79 0.00 88 1010.9
20260508154330 51 75 0.0 1.7 0.00 0.79 0.00 88 1011.1
20260508153828 51 82 0.9 0.9 0.00 0.79 0.00 88 1011.1
20260508153349 51 165 0.0 0.0 0.00 0.79 0.00 88 1011.1
20260508152845 52 165 0.0 0.9 0.00 0.79 0.00 87 1011.1
20260508152326 52 66 0.0 1.7 0.00 0.79 0.00 87 1011.1
20260508151845 53 65 0.0 1.7 0.00 0.79 0.16 87 1011.0
20260508151322 53 58 0.0 1.7 0.00 0.79 0.16 87 1011.1
20260508150820 53 59 1.7 2.6 0.00 0.79 0.16 87 1011.3
20260508150339 53 212 0.0 4.3 0.00 0.79 0.16 87 1011.3
20260508145816 53 30 0.0 4.3 0.00 0.79 0.16 87 1011.2
20260508145314 53 242 0.0 0.0 0.00 0.79 0.16 87 1011.3
20260508144833 53 236 0.0 0.9 0.00 0.79 0.16 87 1011.1
20260508144353 53 248 0.0 0.9 0.00 0.79 0.16 87 1011.1
20260508143851 53 61 0.0 0.9 0.00 0.79 0.16 86 1011.0
20260508143329 53 61 0.0 0.9 0.00 0.79 0.16 86 1011.1
20260508142847 54 61 0.0 3.5 0.00 0.79 0.16 85 1011.0
20260508142345 54 61 0.0 7.0 0.00 0.79 0.16 85 1010.8
20260508141822 54 30 1.7 7.8 0.00 0.79 0.16 84 1010.8
20260508141319 54 51 4.3 7.8 0.00 0.79 0.16 85 1010.8
20260508140817 54 8 1.7 7.8 0.00 0.79 0.16 84 1010.7
20260508140316 54 343 2.6 5.2 0.00 0.79 0.16 85 1010.7
20260508135816 54 236 0.9 2.6 0.00 0.79 0.16 85 1010.7
20260508135314 54 241 0.0 5.2 0.00 0.79 0.16 85 1010.6
20260508134833 54 53 0.9 5.2 0.00 0.79 0.16 85 1010.4
20260508134352 55 68 1.7 5.2 0.00 0.79 0.16 84 1010.3
20260508133829 55 46 0.9 2.6 0.00 0.79 0.16 84 1010.3
20260508133328 55 231 0.0 6.1 0.00 0.79 0.16 84 1010.3
20260508132826 55 43 1.7 6.1 0.00 0.79 0.16 84 1010.2
20260508132325 55 52 0.0 1.7 0.00 0.79 0.16 85 1010.2
20260508131828 55 52 0.0 4.3 0.00 0.79 0.16 84 1010.2
20260508131402 55 57 0.9 4.3 0.00 0.79 0.16 84 1010.1
20260508130815 55 33 1.7 6.1 0.00 0.79 0.16 85 1010.1
20260508130318 55 41 1.7 6.1 0.00 0.79 0.16 85 1010.2
20260508125816 55 26 1.7 4.3 0.00 0.79 0.16 85 1010.2
20260508125315 55 31 0.0 3.5 0.00 0.79 0.16 85 1010.2
20260508124815 55 65 1.7 5.2 0.00 0.79 0.16 84 1010.1
20260508124333 56 20 3.5 5.2 0.00 0.79 0.16 83 1010.1
20260508123853 56 37 1.7 4.3 0.00 0.79 0.16 83 1010.1
20260508123331 55 32 0.9 6.1 0.00 0.79 0.16 85 1009.9
20260508122829 55 42 2.6 6.1 0.04 0.79 0.16 87 1010.0
20260508122350 55 56 0.0 2.6 0.04 0.79 0.16 88 1009.9
20260508121827 55 227 0.0 3.5 0.08 0.79 0.16 89 1009.9
20260508121325 55 45 1.7 3.5 0.08 0.79 0.16 89 1009.9
20260508120822 55 60 1.7 3.5 0.08 0.79 0.16 89 1010.0
20260508120321 55 49 0.9 3.5 0.08 0.79 0.16 89 1010.0
20260508115820 55 20 0.9 5.2 0.08 0.79 0.16 88 1009.8
20260508115319 55 54 2.6 6.1 0.08 0.79 0.16 89 1009.6
20260508114837 56 24 2.6 9.6 0.08 0.79 0.16 89 1009.5
20260508114315 56 26 0.9 9.6 0.08 0.79 0.16 89 1009.6
20260508113813 56 69 1.7 7.8 0.12 0.79 0.16 89 1009.7
20260508113317 56 21 0.9 8.7 0.12 0.79 0.16 89 1009.7
20260508112815 57 23 3.5 8.7 0.08 0.75 0.15 89 1009.6
20260508112313 57 31 1.7 4.3 0.08 0.75 0.15 89 1009.6
20260508111812 57 311 0.0 0.9 0.04 0.71 0.14 89 1009.6
20260508111330 57 242 0.0 4.3 0.08 0.71 0.14 88 1009.5
20260508110828 57 34 0.9 4.3 0.12 0.71 0.14 88 1009.4
20260508110326 57 32 0.9 7.0 0.35 0.71 0.14 88 1009.1
20260508105826 58 36 3.5 7.0 0.51 0.71 0.14 88 1009.0
20260508105324 58 62 2.6 7.0 0.51 0.71 0.14 89 1009.0
20260508104823 58 51 1.7 9.6 0.55 0.71 0.14 89 1008.9
20260508104320 58 240 4.3 9.6 0.71 0.71 0.14 89 1008.9
20260508103819 58 49 2.6 5.2 0.67 0.67 0.13 90 1008.8
20260508103316 58 41 1.7 5.2 0.67 0.67 0.13 90 1008.9
20260508102815 57 49 2.6 10.4 0.67 0.67 0.13 90 1008.8
20260508102314 57 18 6.1 11.3 0.67 0.67 0.13 90 1008.7
20260508101831 57 40 3.5 9.6 0.67 0.67 0.13 91 1008.5
20260508101351 57 37 5.2 16.5 0.63 0.63 0.13 90 1008.4
20260508100826 57 40 7.8 16.5 0.59 0.59 0.12 89 1008.2
20260508100345 58 57 4.3 10.4 0.31 0.31 0.06 88 1008.3
20260508095823 59 172 6.1 14.8 0.20 0.20 0.04 87 1008.2
20260508095321 59 103 6.1 14.8 0.20 0.20 0.04 85 1007.8
20260508094819 60 13 6.1 12.2 0.16 0.16 0.03 82 1007.8
20260508094340 61 60 3.5 11.3 0.00 0.00 0.00 81 1007.8
20260508093816 61 64 4.3 9.6 0.00 0.00 0.00 80 1007.9
20260508093314 61 44 5.2 9.6 0.00 0.00 0.00 81 1007.8
20260508092817 61 79 4.3 11.3 0.00 0.00 0.00 82 1007.8
20260508092315 61 61 7.0 12.2 0.00 0.00 0.00 83 1007.7
20260508091813 62 26 4.3 13.0 0.00 0.00 0.00 83 1007.5
20260508091333 62 94 6.1 13.0 0.00 0.00 0.00 83 1007.4
20260508090832 62 24 5.2 11.3 0.00 0.00 0.00 82 1007.3
20260508090330 63 60 7.8 13.9 0.00 0.00 0.00 82 1007.3
20260508085827 63 94 7.0 13.9 0.00 0.00 0.00 82 1007.0
20260508085325 63 23 3.5 11.3 0.00 0.00 0.00 82 1007.1
20260508084844 63 44 5.2 11.3 0.00 0.00 0.00 82 1006.9
20260508084321 63 25 4.3 12.2 0.00 0.00 0.00 82 1006.9
20260508083820 63 25 6.1 12.2 0.00 0.00 0.00 82 1006.6
20260508083320 63 59 6.1 10.4 0.00 0.00 0.00 82 1006.8
20260508082819 64 75 3.5 8.7 0.00 0.00 0.00 81 1007.0
20260508082338 64 84 4.3 10.4 0.00 0.00 0.00 82 1006.7
20260508081817 64 37 5.2 10.4 0.00 0.00 0.00 82 1006.8
20260508081335 64 43 7.0 10.4 0.00 0.00 0.00 81 1006.9
20260508080812 64 53 5.2 10.4 0.00 0.00 0.00 81 1007.0
20260508080331 64 114 4.3 13.9 0.00 0.00 0.00 81 1007.1
20260508075849 64 49 5.2 13.9 0.00 0.00 0.00 80 1007.2
20260508075348 64 44 4.3 13.9 0.00 0.00 0.00 81 1007.4
20260508074827 64 46 6.1 11.3 0.00 0.00 0.00 81 1007.3
20260508074326 64 70 2.6 10.4 0.00 0.00 0.00 82 1007.2
20260508073823 64 38 3.5 10.4 0.00 0.00 0.00 81 1007.1
20260508073322 65 53 6.1 9.6 0.00 0.00 0.00 80 1007.1
20260508072820 65 79 4.3 7.8 0.00 0.00 0.00 80 1007.2
20260508072319 65 61 3.5 10.4 0.00 0.00 0.00 80 1007.2
20260508071819 65 58 5.2 10.4 0.00 0.00 0.00 79 1007.3
20260508071338 65 48 6.1 10.4 0.00 0.00 0.00 78 1007.3
20260508070816 66 94 3.5 13.0 0.00 0.00 0.00 77 1007.2
20260508070313 66 65 3.5 13.0 0.00 0.00 0.00 76 1007.1
20260508065833 66 49 4.3 9.6 0.00 0.00 0.00 75 1007.3
20260508065331 66 65 3.5 13.0 0.00 0.00 0.00 75 1007.0
20260508064812 66 49 5.2 13.0 0.00 0.00 0.00 75 1006.8
20260508064333 67 23 6.1 12.2 0.00 0.00 0.00 75 1006.6
20260508063831 67 68 4.3 8.7 0.00 0.00 0.00 74 1006.7
20260508063328 68 75 3.5 9.6 0.00 0.00 0.00 73 1006.8
20260508062827 68 347 5.2 9.6 0.00 0.00 0.00 71 1006.9
20260508062345 69 339 4.3 14.8 0.00 0.00 0.00 69 1006.7
20260508061821 69 17 5.2 14.8 0.00 0.00 0.00 69 1006.6
20260508061340 69 40 7.0 13.9 0.00 0.00 0.00 69 1006.5
20260508060817 70 353 7.0 13.9 0.00 0.00 0.00 68 1006.4
20260508060316 70 38 5.2 11.3 0.00 0.00 0.00 67 1006.4
20260508055815 70 84 6.1 15.6 0.00 0.00 0.00 66 1006.5
20260508055313 70 15 5.2 15.6 0.00 0.00 0.00 67 1006.1
20260508054832 70 53 7.0 14.8 0.00 0.00 0.00 67 1006.3
20260508054331 70 153 6.1 16.5 0.00 0.00 0.00 67 1006.4
20260508053828 70 32 7.8 16.5 0.00 0.00 0.00 66 1006.8
20260508053326 70 42 9.6 14.8 0.00 0.00 0.00 66 1006.8
20260508052825 70 41 6.1 12.2 0.00 0.00 0.00 67 1007.0
20260508052323 70 42 5.2 12.2 0.00 0.00 0.00 67 1007.1
20260508051822 70 117 4.3 9.6 0.00 0.00 0.00 67 1007.2
20260508051321 70 51 5.2 13.9 0.00 0.00 0.00 66 1007.1
20260508050824 71 106 3.5 13.9 0.00 0.00 0.00 66 1007.0
20260508050323 71 74 4.3 15.6 0.00 0.00 0.00 66 1007.0
20260508045822 71 66 5.2 15.6 0.00 0.00 0.00 66 1006.9
20260508045321 71 49 7.8 14.8 0.00 0.00 0.00 65 1006.9
20260508044820 72 105 4.3 15.6 0.00 0.00 0.00 64 1007.0
20260508044319 72 250 6.1 15.6 0.00 0.00 0.00 64 1007.0
20260508043817 73 23 6.1 11.3 0.00 0.00 0.00 62 1007.3
20260508043316 74 13 4.3 12.2 0.00 0.00 0.00 63 1007.1
20260508042813 74 150 5.2 12.2 0.00 0.00 0.00 61 1007.2
20260508042353 75 83 4.3 10.4 0.00 0.00 0.00 61 1007.1
20260508041829 75 342 4.3 8.7 0.00 0.00 0.00 61 1007.1
20260508041327 75 298 3.5 7.8 0.00 0.00 0.00 61 1007.1
20260508040824 74 41 3.5 12.2 0.00 0.00 0.00 61 1007.3
20260508040322 74 33 5.2 12.2 0.00 0.00 0.00 62 1007.2
20260508035820 74 56 5.2 10.4 0.00 0.00 0.00 61 1007.4
20260508035318 74 53 4.3 10.4 0.00 0.00 0.00 61 1007.5
20260508034816 74 48 3.5 10.4 0.00 0.00 0.00 62 1007.5
20260508034314 74 49 3.5 10.4 0.00 0.00 0.00 62 1007.8
20260508033813 74 59 4.3 11.3 0.00 0.00 0.00 62 1007.8
20260508033312 74 20 6.1 11.3 0.00 0.00 0.00 62 1007.8
20260508032814 73 28 4.3 9.6 0.00 0.00 0.00 62 1007.8
20260508032333 73 60 0.9 5.2 0.00 0.00 0.00 62 1007.9
20260508031830 71 58 0.9 5.2 0.00 0.00 0.00 63 1008.2
20260508031329 71 43 0.9 3.5 0.00 0.00 0.00 64 1008.1
20260508030848 71 56 0.0 3.5 0.00 0.00 0.00 65 1008.0
20260508030325 70 53 0.0 3.5 0.00 0.00 0.00 66 1008.2
20260508025824 70 39 0.9 7.8 0.00 0.00 0.00 65 1008.6
20260508025322 70 45 1.7 7.8 0.00 0.00 0.00 65 1008.6
20260508024819 71 59 2.6 5.2 0.00 0.00 0.00 64 1008.5
20260508024317 72 328 0.9 3.5 0.00 0.00 0.00 64 1008.5
20260508023814 72 316 1.7 3.5 0.00 0.00 0.00 63 1008.6
20260508023333 72 48 0.9 6.1 0.00 0.00 0.00 63 1008.7
20260508022852 72 78 3.5 6.1 0.00 0.00 0.00 63 1008.6
20260508022328 72 27 0.0 5.2 0.00 0.00 0.00 65 1008.6
20260508021827 71 340 0.9 5.2 0.00 0.00 0.00 65 1008.7
20260508021347 70 216 0.0 3.5 0.00 0.00 0.00 68 1008.9
20260508020824 70 237 1.7 3.5 0.00 0.00 0.00 67 1009.0
20260508020321 69 46 0.9 4.3 0.00 0.00 0.00 69 1009.1
20260508015821 69 20 1.7 4.3 0.00 0.00 0.00 69 1009.0
20260508015320 68 39 1.7 6.1 0.00 0.00 0.00 69 1009.0
20260508014839 69 58 2.6 6.1 0.00 0.00 0.00 69 1009.2
20260508014317 68 32 1.7 6.1 0.00 0.00 0.00 69 1009.2
20260508013814 68 89 2.6 6.1 0.00 0.00 0.00 69 1009.3
20260508013332 68 83 0.9 1.7 0.00 0.00 0.00 69 1009.6
20260508012851 67 147 0.0 3.5 0.00 0.00 0.00 71 1009.8
20260508012351 67 66 0.0 2.6 0.00 0.00 0.00 71 1010.0
20260508011827 66 342 0.9 4.3 0.00 0.00 0.00 71 1010.1
20260508011329 67 20 2.6 4.3 0.00 0.00 0.00 69 1010.1
20260508010825 67 39 0.9 1.7 0.00 0.00 0.00 70 1010.1
20260508010324 67 320 0.0 0.9 0.00 0.00 0.00 70 1010.2
20260508005822 66 255 0.0 0.9 0.00 0.00 0.00 70 1010.1
20260508005322 66 252 0.0 2.6 0.00 0.00 0.00 72 1010.1
20260508004820 66 150 0.0 2.6 0.00 0.00 0.00 73 1010.2
20260508004340 66 34 0.9 1.7 0.00 0.00 0.00 74 1010.1
20260508003816 65 311 0.9 1.7 0.00 0.00 0.00 73 1010.0
20260508003335 65 6 0.9 1.7 0.00 0.00 0.00 73 1010.2
20260508002832 65 205 0.0 1.7 0.00 0.00 0.00 73 1010.3
20260508002329 65 190 0.9 1.7 0.00 0.00 0.00 73 1010.3
20260508001827 65 239 0.0 2.6 0.00 0.00 0.00 74 1010.3
20260508001326 64 222 0.9 2.6 0.00 0.00 0.00 74 1010.3
20260508000825 64 221 0.0 2.6 0.00 0.00 0.00 75 1010.3
20260508000323 64 225 0.0 2.6 0.00 0.00 0.00 75 1010.4
20260507235821 63 234 0.0 2.6 0.00 0.00 0.00 76 1010.5
20260507235340 63 226 0.9 2.6 0.00 0.00 0.00 76 1010.7
20260507234817 64 204 0.0 0.9 0.00 0.00 0.00 75 1010.8
20260507234317 63 210 0.0 0.9 0.00 0.00 0.00 76 1010.7
20260507233815 63 213 0.0 0.9 0.00 0.00 0.00 77 1010.8
20260507233313 63 255 0.9 0.9 0.00 0.00 0.00 77 1011.1
20260507232854 63 257 0.0 0.9 0.00 0.00 0.00 77 1011.1
20260507232333 63 240 0.0 0.9 0.00 0.00 0.00 77 1011.2
20260507231830 63 233 0.0 0.9 0.00 0.00 0.00 78 1011.3
20260507231327 62 233 0.0 3.5 0.00 0.00 0.00 79 1011.3
20260507230825 62 165 0.9 3.5 0.00 0.00 0.00 78 1011.3
20260507230323 62 244 0.0 1.7 0.00 0.00 0.00 79 1011.1
20260507225826 62 271 0.9 4.3 0.00 0.00 0.00 80 1011.1
20260507225324 61 42 1.7 4.3 0.00 0.00 0.00 79 1011.2
20260507224822 61 61 0.0 2.6 0.00 0.00 0.00 81 1011.4
20260507224321 60 47 0.9 2.6 0.00 0.00 0.00 82 1011.4
20260507223821 60 46 0.0 1.7 0.00 0.00 0.00 83 1011.6
20260507223320 59 328 0.0 2.6 0.00 0.00 0.00 83 1011.6
20260507222324 59 68 1.7 3.5 0.00 0.00 0.00 83 1011.7
20260507221822 59 25 0.0 2.6 0.00 0.00 0.00 83 1011.8
20260507221319 59 21 0.0 0.9 0.00 0.00 0.00 84 1011.8
20260507220817 59 19 0.0 0.9 0.00 0.00 0.00 84 1011.8
20260507220315 59 346 0.0 0.9 0.00 0.00 0.00 84 1011.9
20260507215814 59 220 0.0 0.0 0.00 0.00 0.00 84 1011.7
20260507215313 58 44 0.0 0.0 0.00 0.00 0.00 84 1011.7
20260507214853 58 45 0.0 0.0 0.00 0.00 0.00 84 1011.7
20260507214330 58 44 0.0 0.0 0.00 0.00 0.00 85 1011.6
20260507213828 58 44 0.0 0.0 0.00 0.00 0.00 85 1011.8
20260507213330 58 44 0.0 0.0 0.00 0.00 0.00 86 1011.9
20260507212827 57 44 0.0 0.0 0.00 0.00 0.00 86 1012.0
20260507212346 57 45 0.0 0.0 0.00 0.00 0.00 86 1012.1
20260507211824 57 44 0.0 0.0 0.00 0.00 0.00 87 1012.0
20260507211322 57 44 0.0 0.0 0.00 0.00 0.00 87 1011.9
20260507210821 57 44 0.0 0.0 0.00 0.00 0.00 87 1012.0
20260507210321 56 44 0.0 0.0 0.00 0.00 0.00 87 1011.9